Kerkyra, Greece

2:06 PM EEST on March 26, 2017 (GMT +0300)
Ioannis Kapodistrias

Weather History for LGKR - March, 2012

Change the Weather History Date:

Thursday, March 29, 2012

  Actual Average Record
Temperature  
Mean Temperature 58 °F -  
Max Temperature 68 °F 67 °F 69 °F (2008)
Min Temperature 48 °F 49 °F 39 °F (1998)
Degree Days  
Heating Degree Days 7    
Growing Degree Days 8 (Base 50)    
Moisture  
Dew Point 53 °F    
Average Humidity 83    
Maximum Humidity 94    
Minimum Humidity 68    
Precipitation  
Precipitation 0.00 in 0.08 in - ()
Sea Level Pressure  
Sea Level Pressure 30.06 in    
Wind  
Wind Speed 2 mph ()    
Max Wind Speed 9 mph    
Max Gust Speed -    
Visibility 6.5 miles    
Events      
Averages and records for this station are not official NWS values.
T = Trace of Precipitation, MM = Missing Value Source: Averaged Metar Reports

Daily Weather History Graph

Daily Weather History Graph

Search for Another Location

Airport or City:

Trip Planner

Search our weather history database for the weather conditions in past years. The results will help you decide how hot, cold, wet, or windy it might be!

Date:

Astronomy

Mar. 29, 2012 Rise Set
Actual Time 7:28 AM EEST 8:01 PM EEST
Civil Twilight 7:01 AM EEST 8:28 PM EEST
Nautical Twilight 6:30 AM EEST 9:00 PM EEST
Astronomical Twilight 5:57 AM EEST 9:33 PM EEST
Moon 11:22 AM EEST (3/29) 1:37 AM EEST (3/29)
Length of Visible Light 13h 26m
Length of Day
12h 32m
Waxing Crescent, 36% of the Moon is Illuminated
Mar 29
Waxing Crescent
Mar 30
First Quarter
Apr 6
Full
Apr 13
Last Quarter
Apr 21
New

Hourly Weather History & Observations

Time (EEST) Temp. Dew Point Humidity Pressure Visibility Wind Dir Wind Speed Gust Speed Precip Events Conditions
12:20 AM 57.2 °F 51.8 °F 82% 30.04 in - East 4.6 mph - N/A   Clear
12:50 AM 55.4 °F 50.0 °F 82% 30.06 in - Calm Calm - N/A   Clear
1:20 AM 55.4 °F 50.0 °F 82% 30.06 in - Calm Calm - N/A   Clear
1:50 AM 55.4 °F 50.0 °F 82% 30.06 in - Calm Calm - N/A   Clear
2:20 AM 55.4 °F 50.0 °F 82% 30.06 in - Calm Calm - N/A   Clear
2:50 AM 51.8 °F 48.2 °F 88% 30.09 in - Calm Calm - N/A   Clear
3:00 AM 51 °F 49 °F 90% 30.09 in 6 mi Calm Calm - -  
3:20 AM 51.8 °F 48.2 °F 88% 30.09 in - Calm Calm - N/A   Clear
3:50 AM 50.0 °F 48.2 °F 94% 30.09 in - Calm Calm - N/A   Clear
4:20 AM 50.0 °F 48.2 °F 94% 30.09 in - Calm Calm - N/A   Clear
4:50 AM 50.0 °F 48.2 °F 94% 30.09 in - Calm Calm - N/A   Clear
5:20 AM 50.0 °F 48.2 °F 94% 30.09 in - Calm Calm - N/A   Clear
5:50 AM 48.2 °F 46.4 °F 93% 30.09 in - WNW 3.5 mph - N/A   Clear
6:20 AM 48.2 °F 46.4 °F 93% 30.09 in - Calm Calm - N/A   Clear
6:50 AM 48.2 °F 46.4 °F 93% 30.09 in - Calm Calm - N/A   Clear
7:20 AM 48.2 °F 46.4 °F 93% 30.09 in - Calm Calm - N/A   Clear
7:50 AM 48.2 °F 46.4 °F 93% 30.09 in - Calm Calm - N/A   Clear
8:50 AM 50.0 °F 46.4 °F 87% 30.09 in 6.2 mi Calm Calm - N/A   Partly Cloudy
9:00 AM 50 °F 47 °F 85% 30.11 in 12 mi Calm Calm - -   Scattered Clouds
9:20 AM 53.6 °F 46.4 °F 77% 30.09 in 6.2 mi Calm Calm - N/A   Partly Cloudy
9:50 AM 60.8 °F 53.6 °F 77% 30.09 in 6.2 mi Calm Calm - N/A   Scattered Clouds
10:20 AM 62.6 °F 53.6 °F 72% 30.09 in 6.2 mi Calm Calm - N/A   Scattered Clouds
10:50 AM 62.6 °F 55.4 °F 77% 30.12 in 6.2 mi SE 8.1 mph - N/A   Scattered Clouds
11:20 AM 62.6 °F 55.4 °F 77% 30.12 in 6.2 mi SE 9.2 mph - N/A   Scattered Clouds
11:50 AM 64.4 °F 57.2 °F 77% 30.12 in 6.2 mi ESE 8.1 mph - N/A   Partly Cloudy
12:20 PM 64.4 °F 57.2 °F 77% 30.12 in 6.2 mi ESE 8.1 mph - N/A   Partly Cloudy
12:50 PM 64.4 °F 57.2 °F 77% 30.12 in 6.2 mi SE 9.2 mph - N/A   Partly Cloudy
1:20 PM 64.4 °F 57.2 °F 77% 30.12 in 6.2 mi SE 9.2 mph - N/A   Partly Cloudy
1:50 PM 64.4 °F 57.2 °F 77% 30.09 in 6.2 mi SSE 9.2 mph - N/A   Partly Cloudy
2:20 PM 64.4 °F 57.2 °F 77% 30.09 in 6.2 mi SE 9.2 mph - N/A   Partly Cloudy
2:50 PM 66.2 °F 57.2 °F 73% 30.06 in 6.2 mi SSE 9.2 mph - N/A   Partly Cloudy
3:00 PM 65 °F 57 °F 69% 30.06 in 12 mi SSE 9.2 mph - -   Scattered Clouds
3:20 PM 66.2 °F 57.2 °F 73% 30.06 in 6.2 mi SSE 9.2 mph - N/A   Partly Cloudy
3:50 PM 66.2 °F 57.2 °F 73% 30.04 in 6.2 mi SSE 9.2 mph - N/A   Partly Cloudy
4:20 PM 68.0 °F 57.2 °F 68% 30.04 in 6.2 mi SSE 9.2 mph - N/A   Partly Cloudy
4:50 PM 68.0 °F 57.2 °F 68% 30.01 in 6.2 mi SSE 8.1 mph - N/A   Scattered Clouds
5:20 PM 68.0 °F 57.2 °F 68% 30.01 in 6.2 mi SE 6.9 mph - N/A   Scattered Clouds
5:50 PM 66.2 °F 59.0 °F 78% 30.01 in 6.2 mi SSE 5.8 mph - N/A   Scattered Clouds
6:20 PM 64.4 °F 59.0 °F 83% 30.01 in 6.2 mi South 4.6 mph - N/A   Partly Cloudy
6:50 PM 64.4 °F 57.2 °F 77% 30.01 in 6.2 mi SW 4.6 mph - N/A   Partly Cloudy
7:20 PM 62.6 °F 57.2 °F 82% 30.01 in 6.2 mi SW 4.6 mph - N/A   Partly Cloudy
7:50 PM 60.8 °F 55.4 °F 82% 30.01 in 6.2 mi WSW 4.6 mph - N/A   Partly Cloudy
8:50 PM 59.0 °F 57.2 °F 94% 30.01 in 6.2 mi Calm Calm - N/A   Partly Cloudy
9:00 PM 59 °F 57 °F 90% 30.01 in 6 mi Calm Calm - -   Scattered Clouds
9:20 PM 59.0 °F 57.2 °F 94% 30.01 in 6.2 mi Calm Calm - N/A   Partly Cloudy
9:50 PM 57.2 °F 55.4 °F 94% 30.01 in 6.2 mi Calm Calm - N/A   Partly Cloudy
10:20 PM 57.2 °F 53.6 °F 88% 30.01 in 6.2 mi Calm Calm - N/A   Partly Cloudy
10:50 PM 57.2 °F 53.6 °F 88% 30.01 in 6.2 mi Calm Calm - N/A   Partly Cloudy
11:20 PM 57.2 °F 53.6 °F 88% 30.01 in 6.2 mi Calm Calm - N/A   Partly Cloudy
11:50 PM 55.4 °F 53.6 °F 94% 29.98 in 6.2 mi Calm Calm - N/A   Partly Cloudy